Flag for Kazakhstan Weather past 2 weeks in Shymkent, Kazakhstan

Now
79 °F

Clear.


Feels Like: 78 °F
Forecast: 74 / 103 °F
Wind: 6 mph from Southeast

Location: Shymkent Airport

Current Time: Aug 24, 2014 at 12:08:51 AM

Latest Report: Aug 23, 2014 at 11:30 PM


Visibility: 10 mi

Pressure: 29.74 "Hg

Humidity: 21%

Dew point: 36 °F

Location of ShymkentLocation

Historic Weather in Shymkent — Graph

°F

Shymkent temperature yesterday

Maximum temperature yesterday: 104 °F (at 4:00 PM)
Minimum temperature yesterday: 70 °F (at 3:00 AM)
Average temperature yesterday: 87 °F

Past Weeks' High & Low Weather Summary

 TemperatureHumidityPressure
High104 °F (Aug 23, 4:00 PM)67% (Aug 16, 7:00 AM)29.98 "Hg (Aug 16, 7:00 AM)
Low55 °F (Aug 16, 7:00 AM)5% (Aug 12, 4:30 PM)29.62 "Hg (Aug 14, 2:00 AM)
Average84 °F20%29.79 "Hg
* Reported Aug 8 11:00 PM — Aug 23 11:00 PM, Shymkent, Weather by CustomWeather, © 2014

Note: Actual official high and low records may vary slightly from our data, if they occured in-between our weather recording intervals... More about our weather records

Advertising

Shymkent weather history for previous 24 hours

 ConditionsComfort  
Time TempWeatherWind HumidityBarometerVisibility
11:00 PM
Aug 23
81 °FClear.8 mph17%29.74 "Hg4 mi
10:30 PM82 °FClear.3 mph15%29.74 "Hg4 mi
10:00 PM88 °FPassing clouds.3 mph12%29.74 "HgN/A
9:30 PM88 °FClear.3 mph13%29.74 "Hg10 mi
9:00 PM84 °FClear.3 mph15%29.74 "Hg10 mi
8:30 PM88 °FClear.3 mph15%29.71 "Hg10 mi
8:00 PM91 °FPassing clouds.3 mph13%29.71 "HgN/A
7:30 PM95 °FPassing clouds.3 mph11%29.71 "HgN/A
7:00 PM97 °FSunny.6 mph10%29.71 "Hg10 mi
6:30 PM99 °FSunny.6 mph9%29.71 "Hg10 mi
6:00 PM100 °FSunny.10 mph8%29.71 "Hg10 mi
5:30 PM102 °FSunny.10 mph7%29.71 "Hg10 mi
5:00 PM102 °FSunny.10 mph6%29.71 "Hg10 mi
4:30 PM104 °FSunny.13 mph6%29.71 "Hg10 mi
4:00 PM104 °FPassing clouds.3 mph7%29.71 "HgN/A
3:30 PM102 °FPassing clouds.6 mph7%29.71 "HgN/A
3:00 PM102 °FPassing clouds.6 mph8%29.71 "HgN/A
2:30 PM102 °FPassing clouds.3 mph8%29.71 "HgN/A
2:00 PM102 °FPassing clouds.6 mph8%29.71 "HgN/A
1:30 PM100 °FSunny.3 mph6%29.74 "Hg10 mi
1:00 PM100 °FPassing clouds.6 mph10%29.74 "HgN/A
12:30 PM99 °FPassing clouds.3 mph10%29.74 "HgN/A
12:00 PM97 °FPassing clouds.6 mph11%29.74 "HgN/A
11:30 AM97 °FPassing clouds.6 mph12%29.74 "HgN/A
11:00 AM97 °FPassing clouds.6 mph10%29.74 "HgN/A
10:30 AM97 °FSunny.3 mph12%29.74 "Hg10 mi
10:00 AM91 °FPassing clouds.3 mph13%29.74 "HgN/A
9:30 AM88 °FSunny.6 mph16%29.74 "Hg10 mi
9:00 AM84 °FSunny.6 mph20%29.71 "Hg10 mi
8:30 AM81 °FSunny.8 mph20%29.71 "Hg10 mi
8:00 AM77 °FSunny.8 mph26%29.71 "Hg10 mi
7:30 AM73 °FSunny.8 mph27%29.71 "Hg10 mi
6:30 AM72 °FSunny.6 mph31%29.68 "Hg10 mi
6:00 AM72 °FSunny.8 mph31%29.68 "Hg10 mi
5:30 AM72 °FClear.8 mph31%29.68 "Hg10 mi
5:00 AM70 °FClear.10 mph35%29.68 "Hg10 mi
4:30 AM73 °FClear.10 mph29%29.68 "Hg10 mi
4:00 AM72 °FClear.3 mph33%29.68 "Hg10 mi
3:30 AM72 °FClear.3 mph31%29.68 "Hg10 mi
3:00 AM70 °FClear.3 mph35%29.65 "Hg10 mi
2:30 AM72 °FClear.3 mph33%29.65 "Hg10 mi
2:00 AM73 °FClear.3 mph29%29.65 "Hg10 mi
1:30 AM75 °FClear.3 mph27%29.68 "Hg10 mi
1:00 AM77 °FClear.3 mph26%29.68 "Hg10 mi
12:30 AM79 °FClear.6 mph23%29.68 "Hg10 mi
12:00 AM79 °FClear.6 mph24%29.68 "Hg10 mi
Weather by CustomWeather, © 2014

See weather overviewHow to use our weather pages